DateTimeUTC,F1_A11,F1_S11,BsB_S11,BsG_S11,BsR_S11,BbsB_S11,BbsG_S11,BbsR_S11,BaB_A11,BaG_A11,BaR_A11,Tu_S11,T_S11,Uu_S11,U_S11,P_S11,T1_A11
2021-02-15T19:00:00Z,00000200,21000000,,,,,,,0000.09,-000.09,-000.24,18.1,24.4,00.3,00.2,0635.7,31.1
2021-02-15T19:01:00Z,00000200,21000000,,,,,,,-000.21,-000.01,-000.09,18.1,24.4,00.3,00.2,0635.7,31.0
2021-02-15T19:02:00Z,00000200,21000000,,,,,,,-000.06,-000.06,0000.03,18.1,24.4,00.3,00.2,0635.7,31.0
2021-02-15T19:03:00Z,00000200,61000000,,,,,,,0000.31,0000.37,0000.29,18.1,24.4,00.3,00.2,0635.7,31.0
2021-02-15T19:04:00Z,00000200,41000000,-000.48,0000.25,0000.37,-000.72,0000.33,-000.08,0000.03,-000.50,-000.00,18.0,24.1,00.5,00.3,0636.5,31.0
2021-02-15T19:05:00Z,00000200,01000000,-000.55,0000.01,-000.00,-000.72,0000.14,0000.14,-000.29,0000.70,0000.09,17.9,24.1,00.5,00.3,0636.8,31.0
2021-02-15T19:06:00Z,00000200,01000000,-000.46,0000.30,-000.25,0000.07,0000.07,-000.41,0000.44,-000.11,0000.30,17.9,24.0,00.5,00.3,0636.5,31.0
2021-02-15T19:07:00Z,00000200,01000000,-000.92,0000.32,-000.03,0000.48,0000.16,-000.46,0000.02,-000.12,-000.24,17.9,24.0,00.6,00.4,0636.5,31.0
2021-02-15T19:08:00Z,00000200,01000000,-000.36,0000.35,-000.14,-000.05,0000.29,-000.11,-000.26,0000.33,0000.18,17.8,24.0,00.6,00.4,0636.6,31.0
2021-02-15T19:09:00Z,00000200,01000000,-000.61,0000.30,-000.05,0000.02,0000.16,-000.20,0000.34,-000.01,-000.15,17.8,24.0,00.6,00.4,0636.5,31.0
2021-02-15T19:10:00Z,00000200,01000000,0000.30,0000.33,0000.16,-000.08,0000.10,-000.18,0000.25,-000.04,0000.19,17.7,23.9,00.6,00.4,0636.5,31.0
2021-02-15T19:11:00Z,00000200,01000000,0000.68,0000.30,0000.53,-000.30,0000.25,-000.13,0000.02,0000.13,0000.11,17.7,23.9,00.6,00.4,0636.7,31.0
2021-02-15T19:12:00Z,00000200,01000000,0000.06,0000.18,-000.21,-000.10,0000.11,-000.23,0000.06,0000.02,0000.24,17.7,23.9,00.6,00.4,0636.5,31.0
2021-02-15T19:13:00Z,00000200,01000000,-000.33,0000.17,0000.09,0000.23,-000.00,-000.01,0000.09,0000.41,-000.29,17.6,23.8,00.7,00.5,0636.5,31.0
2021-02-15T19:14:00Z,00000200,01000000,0000.41,0000.27,-000.03,0000.43,0000.15,-000.25,0000.02,-000.45,0000.43,17.6,23.8,00.7,00.5,0636.5,31.0
2021-02-15T19:15:00Z,00000200,01000000,0000.63,0000.17,-000.03,0000.05,0000.18,-000.22,0000.22,0000.55,-000.28,17.6,23.8,00.6,00.4,0636.4,31.0
2021-02-15T19:16:00Z,00000200,01000000,-000.06,0000.17,0000.05,0000.41,-000.02,-000.17,0000.11,-000.16,0000.17,17.5,23.8,00.7,00.5,0636.5,31.0
2021-02-15T19:17:00Z,00000200,01000000,0000.49,-000.26,0000.24,-000.02,0000.05,-000.38,0000.13,-000.04,-000.14,17.5,23.7,00.6,00.4,0636.5,31.0
2021-02-15T19:18:00Z,00000200,01000000,0000.34,0000.42,0000.08,-000.23,0000.17,-000.07,-000.09,0000.09,0000.35,17.5,23.7,00.8,00.5,0636.6,31.0
2021-02-15T19:19:00Z,00000200,01000000,-000.06,0000.05,-000.19,0000.31,0000.29,-000.06,-000.07,0000.06,0000.11,17.4,23.7,00.7,00.5,0636.4,31.0
2021-02-15T19:20:00Z,00000200,01000000,-000.31,0000.26,-000.10,0000.08,0000.44,-000.03,0000.20,0000.01,0000.01,17.4,23.6,00.7,00.5,0636.4,31.0
2021-02-15T19:21:00Z,00000200,01000000,0000.09,0000.02,0000.13,0000.02,0000.04,-000.41,0000.54,0000.41,0000.25,17.4,23.6,00.7,00.5,0636.5,31.0
2021-02-15T19:22:00Z,00000200,01000000,-000.43,0000.26,0000.17,-000.29,0000.29,-000.29,0000.21,0000.21,-000.03,17.5,23.6,00.7,00.5,0636.5,31.0
2021-02-15T19:23:00Z,00000200,01000000,-000.22,0000.04,0000.06,-000.07,0000.18,-000.01,-000.05,-000.01,0000.28,17.6,23.7,00.7,00.5,0636.5,31.0
2021-02-15T19:24:00Z,00000200,01000000,-000.24,0000.00,0000.35,0000.36,-000.04,-000.02,-000.02,0000.20,0000.00,17.6,23.7,00.7,00.5,0636.5,31.0
2021-02-15T19:25:00Z,00000200,01000000,0000.43,0000.26,0000.08,0000.03,0000.33,-000.18,0000.08,-000.08,0000.15,17.7,23.7,00.7,00.5,0636.5,31.0
2021-02-15T19:26:00Z,00000200,01000000,-000.40,0000.16,0000.08,0000.02,0000.13,-000.12,-000.03,0000.34,0000.25,17.8,23.8,00.6,00.5,0636.5,31.0
2021-02-15T19:27:00Z,00000200,01000000,0000.29,0000.17,0000.09,0000.52,0000.19,-000.19,0000.45,0000.08,-000.16,17.9,23.8,00.6,00.4,0636.6,31.0
2021-02-15T19:28:00Z,00000200,01000000,-000.20,0000.13,0000.39,0000.24,0000.09,-000.16,-000.15,-000.39,-000.30,17.9,23.8,00.6,00.4,0636.5,31.1
2021-02-15T19:29:00Z,00000200,01000000,0000.04,0000.05,-000.06,-000.18,0000.23,-000.37,0000.03,0000.34,0000.16,18.0,23.9,00.8,00.5,0636.6,31.1
2021-02-15T19:30:00Z,00000200,01000000,0000.34,0000.38,-000.18,-000.27,0000.21,-000.20,-000.07,-000.26,0000.21,17.9,23.8,00.7,00.5,0636.5,31.1
2021-02-15T19:31:00Z,00000200,01000000,0000.03,0000.17,0000.18,-000.08,0000.30,-000.21,-000.38,0000.11,-000.29,17.9,23.8,00.7,00.5,0636.6,31.1
2021-02-15T19:32:00Z,00000200,01000000,0000.35,0000.34,-000.00,0000.15,-000.00,-000.35,0000.24,0000.22,0000.12,17.9,23.8,00.6,00.4,0636.5,31.1
2021-02-15T19:33:00Z,00000200,01000000,0000.00,-000.02,0000.07,-000.09,0000.06,-000.12,0000.22,-000.04,0000.45,17.8,23.8,00.6,00.4,0636.5,31.0
2021-02-15T19:34:00Z,00000200,01000000,0000.35,0000.25,0000.14,0000.23,0000.28,-000.19,0000.17,-000.04,-000.37,17.8,23.8,00.7,00.5,0636.4,31.0
2021-02-15T19:35:00Z,00000200,01000000,-000.37,0000.20,-000.12,0000.27,0000.12,-000.22,0000.31,0000.29,0000.28,17.8,23.8,00.6,00.4,0636.4,31.0
2021-02-15T19:36:00Z,00000200,01000000,0000.16,0000.17,-000.01,0000.16,0000.14,-000.44,0000.05,-000.26,-000.05,17.8,23.7,00.7,00.5,0636.3,31.0
2021-02-15T19:37:00Z,00000200,01000000,0000.02,0000.30,0000.36,0000.02,0000.04,-000.14,0000.19,0000.40,0000.01,17.8,23.8,00.7,00.5,0636.4,31.0
2021-02-15T19:38:00Z,00000200,01000000,0000.33,0000.42,-000.14,-000.06,0000.35,0000.08,0000.18,0000.40,0000.36,17.9,23.8,00.6,00.4,0636.5,31.0
2021-02-15T19:39:00Z,00000200,01000000,-000.01,0000.37,0000.15,0000.10,0000.47,-000.19,0000.23,0000.06,0000.38,18.0,23.8,00.8,00.5,0636.3,31.1
2021-02-15T19:40:00Z,00000200,01000000,0000.05,0000.39,-000.06,-000.28,0000.20,-000.45,-000.29,0000.11,-000.08,18.0,23.9,00.6,00.4,0636.4,31.1
2021-02-15T19:41:00Z,00000200,01000000,0000.12,0000.06,0000.28,0000.38,-000.09,-000.02,0000.25,0000.06,-000.20,18.1,23.9,00.6,00.4,0636.3,31.1
2021-02-15T19:42:00Z,00000200,01000000,0000.07,0000.31,0000.07,-000.03,0000.02,0000.13,0000.08,-000.21,0000.50,18.1,23.9,00.7,00.5,0636.5,31.1
2021-02-15T19:43:00Z,00000200,01000000,0000.49,0000.23,0000.18,0000.56,0000.07,-000.27,-000.30,-000.04,-000.52,18.1,23.9,00.6,00.4,0636.6,31.1
2021-02-15T19:44:00Z,00000200,01000000,0000.63,-000.07,-000.11,0000.14,0000.13,-000.18,0000.01,0000.32,-000.05,18.0,23.9,00.7,00.5,0636.3,31.1
2021-02-15T19:45:00Z,00000200,01000000,-000.13,-000.04,0000.14,-000.21,0000.03,-000.04,0000.17,-000.19,-000.01,18.0,23.9,00.7,00.5,0636.5,31.1
2021-02-15T19:46:00Z,00000200,01000000,-000.57,0000.11,0000.01,-000.27,0000.49,-000.31,0000.26,0000.12,0000.30,18.0,23.9,00.6,00.4,0636.5,31.1
2021-02-15T19:47:00Z,00000200,01000000,-000.20,-000.11,0000.49,-000.29,0000.16,-000.22,-000.16,-000.07,-000.03,17.9,23.9,00.6,00.4,0636.5,31.1
2021-02-15T19:48:00Z,00000200,01000000,0000.18,0000.22,0000.25,-000.12,0000.12,-000.20,0000.05,0000.08,-000.20,17.9,23.8,00.6,00.4,0636.5,31.0
2021-02-15T19:49:00Z,00000200,01000000,0000.13,0000.20,0000.42,-000.17,0000.16,-000.32,-000.14,-000.32,0000.17,17.8,23.8,00.7,00.5,0636.6,31.0
2021-02-15T19:50:00Z,00000200,01000000,0000.41,0000.23,-000.06,0000.06,0000.12,0000.03,0000.35,0000.49,0000.06,17.8,23.8,00.6,00.4,0636.4,31.0
2021-02-15T19:51:00Z,00000200,01000000,0000.15,0000.25,0000.19,-000.25,0000.15,-000.17,0000.36,0000.11,0000.30,17.8,23.8,00.6,00.4,0636.4,31.0
2021-02-15T19:52:00Z,00000200,01000000,0000.97,0000.50,-000.05,0000.29,0000.11,0000.12,0000.07,0000.07,0000.23,17.9,23.8,00.6,00.4,0636.5,31.0
2021-02-15T19:53:00Z,00000200,01000000,0000.68,0000.21,0000.12,0000.03,0000.36,-000.13,0000.10,0000.21,-000.20,17.9,23.8,00.5,00.3,0636.4,31.0
2021-02-15T19:54:00Z,00000200,01000000,0000.31,0000.33,0000.12,-000.66,0000.18,-000.21,0000.02,-000.27,0000.07,18.0,23.9,00.6,00.4,0636.4,31.1
2021-02-15T19:55:00Z,00000200,01000000,-000.18,0000.11,-000.01,-000.12,0000.41,-000.12,-000.48,0000.26,0000.13,18.1,23.9,00.5,00.4,0636.4,31.1
2021-02-15T19:56:00Z,00000200,01000000,0000.79,0000.25,0000.11,0000.14,0000.06,-000.35,0000.22,-000.22,-000.05,18.1,24.0,00.4,00.3,0636.5,31.1
2021-02-15T19:57:00Z,00000200,41000000,,,,,,,0000.24,0000.63,-000.07,18.2,24.0,,00.0,0636.6,31.0
2021-02-15T19:58:00Z,00000200,61000000,,,,,,,-000.40,-000.39,-000.12,18.0,24.0,00.3,00.2,0635.6,31.1
2021-02-15T19:59:00Z,00000200,21000000,,,,,,,-000.14,-000.25,-000.37,17.9,24.1,00.3,00.2,0635.5,31.1
